Find Starlink 38384

NORAD ID: 100554 Int'l Des: 2026-200 Owner: SPXS Country: US Constellation: starlink operational

現在のビュー

3D地球を読み込み中...

About Starlink 38384

Starlink 38384 (NORAD 100554) is a starlink constellation satellite launched Sep 2, 2026 by SPXS of US. with a mass of 575.00 kg.

次回通過

Passes for default location (London). Set your location on the main map for personalized predictions.

高度履歴

Loading altitude history...

軌道要素

1 A0554U 26200W 26262.35769928 .00233161 00000-0 13596-2 0 9993
2 A0554 69.9983 138.6241 0003399 273.5945 86.4865 15.77600269 2703
Epoch: Sep 19, 2026 • Age: 30 hours

現在のステータス

高度 337.8 km
遠地点 / 近地点 N/A
速度 7.71 km/s
衛星直下点 4.44°N, 88.41°W
打ち上げ日 Sep 2, 2026
運用期間 18 days
タイプ internet

技術仕様

分類 Payload
質量 575.00 kg
乾燥質量 530.00 kg
長さ 0.30 m
スパン 29.00 m
形状 ? Box + pan
製造者 SPXS
バスタイプ Starlink V2MO
フェーズステータス In Orbit
所有者/国 SPXS/US

Most Searched